Notices

What's New in latest Release from April 7th, 2021:

- Updated Glossary, including Speed of Maximum Gust, and Total Hourly Precipitation

- Updated national and regional climate services offices contacts and prices information

- Addition of station inventory lists for 1981-2010, 1971-2000, and 1961-1990 Normals.

If you haven't already, please take our survey and provide feedback about our website: https://eccc.sondage-survey.ca/f/LanguageSelection.aspx?s=442ca660-fcf1-47c0-95a9-59707d6fd709

Hourly Data Report for March 11, 2004

SHERBROOKE A
QUEBEC

45°26'00.000" N
71°41'00.000" W
241.40 m
7028124
71610
YSC

Download Data

Hourly Data (March 2004)
Hourly Data Report for March 11, 2004
TIME
LST
Temp Definition
°C
Dew Point Definition
°C
Rel Hum Definition
%
Precip. Amount Definition
mm

Wind Dir Definition
10's deg

Wind Spd Definition
km/h
Visibility Definition
km
Stn Press Definition
kPa
Hmdx Definition


Wind Chill Definition


Weather Definition


00:00 -5.8 -11.2 66   6 7 15.0 99.61   -9  
01:00 -6.7 -12.0 66   10 9 15.0 99.61   -11  
02:00 -8.0 -13.4 65   9 6 15.0 99.57   -11  
03:00 -7.0 -12.6 64   8 9 15.0 99.53   -11  
04:00 -8.8 -14.0 66   9 6 15.0 99.50   -12  
05:00 -8.7 -13.7 67   10 9 15.0 99.46   -13  
06:00 -9.4 -14.3 67   8 9 15.0 99.42   -14  
07:00 -8.0 -13.3 66   7 6 15.0 99.36   -11  
08:00 -6.4 -12.5 62   7 6 24.1 99.29   -9 Mainly Clear
09:00 -3.4 -10.8 57   2 6 24.1 99.12   -6 Mainly Clear
10:00 0.2 -9.0 50   10 7 24.1 99.00     Mainly Clear
11:00 3.7 -8.5 40   6 4 24.1 98.89     Mainly Clear
12:00 5.5 -8.4 36   3 6 24.1 98.73     Clear
13:00 6.5 -9.5 31   1 7 24.1 98.57     Mainly Clear
14:00 6.9 -9.5 30   35 11 24.1 98.47     Mainly Clear
15:00 7.5 -9.4 29   1 11 24.1 98.35     Mainly Clear
16:00 7.3 -9.4 29   3 15 24.1 98.22     Mainly Clear
17:00 7.2 -9.4 30   36 6 24.1 98.19     Mainly Clear
18:00 4.9 -9.5 34   4 7 15.0 98.14      
19:00 0.9 -9.2 47     0 15.0 98.08      
20:00 -1.8 -9.6 55     0 15.0 98.02      
21:00 -3.3 -10.5 57   8 7 15.0 97.95   -6  
22:00 -3.6 -10.9 57   13 4 15.0 97.91   -5  
23:00 -5.4 -11.0 65   9 6 15.0 97.83   -8  

Notes on Data Quality.

Legend

  • E = Estimated
  • M = Missing
  • NA = Not Available*
  • [empty] = Indicates an unobserved value
Date modified: